#timestamp,LO_Frequency,Hit,StdDev 
1626127215.1,286046999.9,N
1626127235.9,286046999.8,N
1626127255.7,286046999.8,N
1626127275.6,286047001.2,N
1626127295.4,286047000.4,N
1626127315.2,286047002.3,N
1626127335.1,286047002.8,N
1626127336.0,286047002.8,N
1626127355.8,286047000.1,N
1626127375.6,286046999.9,N
1626127395.5,286047000.8,N
1626127415.3,286047000.7,N
1626127435.2,286046998.5,N
1626127455.9,286046998.4,N
1626127475.7,286047001.1,N
1626127495.6,286047000.2,N
1626127515.4,286047001.6,N
1626127535.2,286047001.6,N
1626127555.1,286047002.6,N
1626127556.0,286047002.6,N
1626127575.8,286047000.1,N
1626127595.7,286047000.1,N
1626127615.5,286047001.2,N
1626127635.3,286046998.4,N
1626127655.2,286046998.8,N
1626127675.9,286046998.1,N
1626127695.7,286046999.4,N
1626127715.6,286046999.0,N
1626127735.4,286046999.1,N
1626127755.3,286046998.3,N
1626127775.1,286046998.7,N
1626127776.0,286046998.7,N
1626127795.8,286046999.0,N
1626127815.7,286046998.4,N
1626127835.5,286046998.9,N
1626127855.3,286046998.8,N
1626127875.2,286046998.8,N
1626127895.0,286046999.0,N
1626127895.9,286046999.0,N
1626127915.8,286046998.4,N
1626127935.6,286047001.2,N
1626127955.4,286046998.9,N
1626127975.3,286046998.8,N
1626127995.1,286046998.4,N
1626128015.8,286046998.9,N
1626128035.7,286046999.1,N
1626128055.5,286046999.0,N
1626128075.3,286046999.5,N
1626128095.2,286046999.2,N
1626128115.0,286046999.0,N
1626128115.9,286046999.0,N
1626128135.8,286046998.8,N
1626128155.6,286046999.1,N
1626128175.4,286046999.1,N
1626128195.3,286046999.5,N
1626128215.1,286046998.6,N
1626128235.9,286046998.1,Y
1626128255.7,286047000.7,P
1626128275.9,286047000.6,N
1626128295.7,286047000.9,N
1626128315.6,286047000.8,N
1626128335.4,286047000.7,N
1626128355.2,286046999.9,N
1626128375.1,286047000.6,N
1626128376.0,286047000.6,N
1626128395.8,286047000.4,N
1626128415.7,286047000.0,N
1626128435.5,286047001.0,N
1626128455.3,286047002.6,Y
1626128475.2,286047002.2,P
1626128495.0,286047001.5,N
1626128495.9,286047001.5,N
1626128515.8,286047004.3,Y
1626128535.6,286047002.3,P
1626128555.4,286047000.2,N
1626128575.3,286047002.4,N
1626128595.1,286047000.2,N
1626128615.9,286047000.4,N
1626128635.7,286046996.6,Y
1626128655.5,286046996.8,P
1626128675.4,286046998.4,N
1626128695.2,286047000.0,N
1626128715.1,286047000.5,N
1626128716.0,286047000.5,N
1626128735.8,286047001.2,N
1626128755.6,286046999.2,N
1626128775.5,286046998.4,N
1626128795.3,286046998.3,N
1626128815.1,286046998.9,N
1626128835.9,286046998.7,N
1626128855.7,286046998.9,N
1626128875.6,286046998.6,N
1626128895.4,286046999.3,N
1626128915.2,286046998.6,N
1626128935.1,286047000.9,N
1626128936.0,286047000.9,N
1626128955.8,286046998.7,N
1626128975.6,286046999.1,N
1626128995.5,286046999.5,N
1626129015.3,286046996.9,N
1626129035.2,286046999.2,N
1626129055.9,286046996.5,N
1626129075.7,286046998.3,N
1626129095.6,286046998.9,N
1626129115.4,286046996.5,N
1626129135.2,286046998.7,N
1626129155.1,286046999.9,N
1626129156.0,286046999.9,N
1626129175.8,286047000.4,N
1626129195.7,286046998.5,N
1626129215.5,286046999.0,N
1626129235.3,286046998.6,N
1626129255.2,286046999.2,N
1626129275.0,286046996.7,N
1626129275.9,286046996.7,N
1626129295.7,286046999.4,N
1626129315.6,286046997.4,N
1626129335.5,286046996.5,Y
1626129355.3,286047000.5,P
1626129375.2,286047000.4,N
1626129395.9,286047002.7,P
1626129415.7,286047002.7,N
1626129435.6,286047002.7,N
1626129455.4,286047000.3,N
1626129505.3,286047002.4,E
1626129515.2,286047000.2,N
1626129535.0,286047001.2,P
1626129535.9,286047001.2,N
1626129555.8,286047000.7,N
1626129575.6,286047000.6,N
1626129595.4,286047000.3,N
1626129615.3,286047000.7,N
1626129635.1,286046998.2,Y
1626129655.9,286046998.5,P
1626129675.7,286046998.1,N
1626129695.5,286046999.3,N
1626129715.4,286046996.7,Y
1626129735.2,286047001.1,P
1626129755.1,286047002.4,N
1626129756.0,286047002.4,N
1626129775.8,286047001.6,N
1626129795.6,286047001.9,N
1626129815.5,286047002.8,N
1626129835.3,286047000.4,N
1626129855.1,286046999.8,N
1626129875.9,286047000.1,N
1626129895.7,286047001.0,N
1626129915.6,286046999.9,N
1626129935.4,286047000.4,N
1626129955.2,286047000.6,N
1626129975.1,286047002.8,N
1626129976.0,286047002.8,N
1626129995.8,286047000.3,N
1626130015.6,286046998.6,N
1626130035.5,286046998.7,N
1626130055.3,286046998.6,N
1626130075.2,286047000.7,N
1626130095.9,286047000.3,N
1626130115.7,286047000.4,N
1626130135.6,286046999.9,N
1626130155.4,286047000.2,N
1626130175.2,286047000.4,N
1626130195.1,286047000.6,N
1626130196.0,286047000.6,N
1626130215.8,286047000.8,N
1626130235.7,286047002.8,N
1626130255.5,286047002.6,N
1626130275.3,286047002.5,N
1626130295.2,286047000.4,N
1626130315.9,286047000.8,N
1626130335.7,286047000.9,N
1626130355.6,286047001.1,N
1626130375.4,286046998.6,N
1626130395.2,286046999.3,N
1626130415.1,286046998.9,N
1626130416.0,286046998.9,N
1626130435.8,286046998.2,N
1626130455.7,286046998.1,N
1626130475.5,286046999.3,N
1626130495.3,286046999.0,N
1626130515.2,286046999.4,N
1626130535.0,286046998.5,N
1626130535.9,286046998.5,N
1626130555.8,286046998.4,N
1626130575.6,286046998.2,N
1626130595.4,286047000.6,N
1626130615.3,286046998.6,N
1626130635.1,286046996.5,N
1626130655.8,286046997.4,N
1626130675.7,286046996.6,N
1626130695.5,286046999.2,N
1626130715.4,286046997.3,N
1626130735.2,286046997.0,N
1626130755.0,286046996.5,N
1626130755.9,286046996.5,N
1626130775.8,286046997.1,N
1626130795.6,286046996.8,N
